Location: La Neuville
(49.4035°N, 2.3258°E)
Time: 15:13:37
(UTC+00:00)

Daily predictions for brighter satellites

Satellite Brightness Start Highest point End
(mag) Time Altitude Azimuth Time Altitude Azimuth Time Altitude Azimuth
Atlas Centaur 2 4.3 20:31:46 10° SW 20:37:04 19° S 20:42:21 10° SE
SL-16 R/B 2.7 20:32:17 10° NNW 20:37:51 51° NE 20:43:22 10° SE
Cosmos 1763 Rocket 3.8 20:34:02 10° NNW 20:39:18 71° WSW 20:44:27 10° SSE
ERS-1 Rocket 3.1 20:34:26 10° SSE 20:39:26 71° ENE 20:44:27 10° N
Cosmos 2369 4.2 20:33:49 10° NW 20:39:28 60° WSW 20:45:05 10° S
RESURS DK-1 3.6 20:37:33 10° NNW 20:41:13 31° NE 20:44:51 10° ESE
Resurs 01 Rocket 3.8 20:37:54 10° SSW 20:41:27 24° W 20:45:02 10° NW
Cosmos 2082 Rocket 2.3 20:37:43 10° SSW 20:43:27 89° WNW 20:49:12 10° NNE
Spot 2 Rocket 3.7 20:39:04 10° SSE 20:44:02 60° ENE 20:49:03 10° N
Cosmos 1933 Rocket 3.6 20:41:18 10° N 20:45:46 87° E 20:50:12 10° S
Cosmos 1470 2.7 20:42:41 10° NNW 20:46:24 81° W 20:50:04 10° S
SPOT 5 3.0 20:44:27 10° S 20:48:42 62° WSW 20:53:04 10° NNW
Cosmos 1300 4.1 20:46:54 10° NNE 20:49:49 23° ENE 20:52:41 10° SE
Cosmos 1908 3.0 20:49:58 10° N 20:53:35 85° E 20:57:12 10° S
Cosmos 1346 Rocket 4.1 20:55:03 10° N 20:58:21 26° ENE 21:01:35 10° SE
Cosmos 1674 3.5 20:57:09 10° SSW 21:00:30 47° WNW 21:03:52 10° N
ATLAS 2AS CENTAUR R/B 3.3 20:53:48 10° NW 21:00:33 51° NE 21:07:01 10° ESE
Meteor 1-22 Rocket 4.3 20:57:00 10° N 21:02:35 69° ENE 21:08:21 10° SSE
Cosmos 468 Rocket 4.4 21:01:15 10° NNW 21:06:26 63° WSW 21:11:33 10° S
KORONAS-FOTON 4.5 21:03:28 10° SSW 21:07:06 54° WNW 21:10:48 10° N
Ariane Rocket 3.0 21:03:27 10° SSE 21:08:33 89° ENE 21:13:40 10° NNW
Cosmos 1758 3.9 21:05:55 10° N 21:09:38 42° ENE 21:12:54 13° SE
Cosmos 1842 4.2 21:07:07 10° SSW 21:10:38 44° WNW 21:14:11 10° N
Cosmos 1356 Rocket 4.4 21:09:22 12° SSE 21:12:44 31° E 21:16:26 10° NNE
COSMOS 2406 3.8 21:11:01 10° SW 21:16:44 65° WNW 21:22:28 10° NNE
SPOT 3 Rocket 3.6 21:12:20 10° SSE 21:17:29 85° WSW 21:22:41 10° NNW
Meteor 1-13 Rocket 4.3 21:13:35 10° S 21:19:24 88° W 21:25:08 10° NNE
Cosmos 1707 Rocket 4.3 21:16:10 12° SSE 21:19:50 37° E 21:23:57 10° NNE
SL-27 R/B 3.7 21:19:33 14° ESE 21:20:16 15° E 21:22:01 10° ENE
ARIANE 5 R/B 4.2 21:17:40 10° ESE 21:21:01 22° ENE 21:24:24 10° N
Cosmos 1980 Rocket 4.1 21:17:33 10° NW 21:21:54 23° WSW 21:26:15 10° SSW
Cosmos 2322 Rocket 2.4 21:16:49 10° NNW 21:22:31 69° ENE 21:27:28 14° SE
S3M 4.1 21:16:15 10° N 21:22:40 86° W 21:28:59 10° S
Spot 1 4.5 21:19:41 10° NNE 21:24:03 51° ESE 21:28:33 10° S
Cosmos 1655 Rocket 4.1 21:23:21 10° S 21:29:40 66° E 21:36:01 10° NNE
SJ 16-02 2.7 21:28:53 15° SE 21:31:06 22° E 21:34:25 10° NE
Cosmos 2278 4.2 21:25:45 10° NW 21:31:21 57° WSW 21:36:25 12° S
Landsat 5 3.5 21:27:34 10° NNE 21:31:28 54° E 21:35:02 13° S
Landsat 4 4.4 21:32:54 11° S 21:36:04 42° W 21:39:22 10° NNW
Cosmos 1741 Rocket 4.3 21:31:56 10° S 21:37:00 51° ESE 21:42:08 10° NNE
Tiangong 0.2 21:36:01 10° SW 21:37:11 12° SSW 21:37:28 11° SSW
USA 281 3.7 21:32:45 12° SE 21:38:39 55° NE 21:45:03 10° NNW
Cosmos 2266 Rocket 4.2 21:33:04 10° SSW 21:39:23 79° W 21:45:50 10° N
Cosmos 1400 Rocket 2.8 21:35:41 10° SSW 21:39:34 79° W 21:43:27 10° N
COSMOS 2428 4.4 21:35:35 10° NNW 21:40:19 26° NE 21:45:03 10° E
Cosmos 1733 Rocket 3.1 21:36:32 10° N 21:40:56 73° ENE 21:44:16 17° SSE
MetOp-A 4.1 21:37:25 15° SSE 21:41:45 86° ENE 21:47:03 10° NNW
Okean 3 4.0 21:39:26 17° SSE 21:42:10 40° E 21:46:05 10° NNE
Terra 3.0 21:38:26 10° SSW 21:42:47 37° W 21:47:12 10° NNW
Cosmos 968 Rocket 3.9 21:41:01 14° S 21:45:04 43° ESE 21:49:58 10° NE
Cosmos 1814 Rocket 4.4 21:40:44 10° NNW 21:45:56 55° ENE 21:50:00 17° SE
SL-4 R/B 2.4 21:43:01 10° W 21:46:53 65° N 21:51:01 10° ENE
Cosmos 2228 Rocket 3.1 21:44:42 12° S 21:48:51 82° E 21:53:27 10° NNE
Cosmos 2219 Rocket 2.8 21:45:39 10° NNW 21:51:11 50° NE 21:55:47 15° SE
Cosmos 1315 Rocket 3.9 21:51:04 19° SE 21:53:00 29° E 21:56:30 10° NNE
ATLAS CENTAUR R/B 1.5 21:52:13 19° S 21:54:16 38° ESE 21:57:37 10° NE
Meteor 2-10 Rocket 4.0 21:50:22 10° NNW 21:55:56 61° W 22:00:34 14° S
SeaSat 1 4.3 21:52:53 10° SSW 21:56:33 21° WSW 22:00:14 10° WNW
Cosmos 1953 3.0 21:55:07 10° N 21:58:45 39° ENE 22:00:51 21° SE
Cosmos 1455 2.9 21:58:43 10° N 22:01:58 35° ENE 22:03:41 21° SE
H-2A R/B 3.8 21:59:30 16° ESE 22:02:18 31° ENE 22:06:06 10° N
Cosmos 1242 Rocket 3.9 22:04:20 15° E 22:04:32 15° E 22:06:15 10° NE
USA 234 3.6 21:59:46 10° ENE 22:06:16 70° NNW 22:12:45 10° WSW
Okean 1-7 3.4 22:04:58 22° SSE 22:07:26 47° E 22:11:36 10° NNE
BREEZE-M DEB (TANK) 2.8 22:06:06 10° W 22:08:08 36° SSW 22:09:09 27° SSE
CZ-2C R/B 4.0 22:04:47 10° NNE 22:09:05 48° E 22:11:36 23° SSE
Cosmos 2360 Rocket 2.4 22:08:39 10° NNW 22:14:18 67° WSW 22:18:06 21° SSE
ALOS 2 4.1 22:11:53 14° ESE 22:14:46 27° ENE 22:18:26 10° N
RESURS DK-1 3.5 22:15:16 10° NW 22:18:57 33° WSW 22:21:10 19° SSW
Cosmos 2333 Rocket 2.4 22:13:37 10° NNW 22:19:20 67° WSW 22:23:08 22° SSE
SL-14 R/B 4.3 22:17:25 10° SW 22:20:58 40° WNW 22:24:35 10° N
SL-16 R/B 3.5 22:16:47 10° NW 22:21:42 31° WSW 22:25:47 14° SSW
Cosmos 1300 4.2 22:21:28 10° NNW 22:24:31 27° W 22:26:54 14° SW
Atlas Centaur 2 4.3 22:19:58 10° SW 22:24:53 17° SSW 22:25:49 17° S
EXPRESS MD2 1.8 22:24:30 10° W 22:26:47 83° N 22:27:54 24° E
OPS 8737 4.0 22:24:42 10° NW 22:27:38 86° NE 22:28:45 35° SE
SL-08 R/B 4.5 22:25:46 21° S 22:30:01 71° E 22:36:06 10° NNE
BREEZE-M DEB (TANK) 3.9 22:14:25 10° W 22:31:38 89° SSE 22:35:52 10° E
Aureole 3 3.9 22:30:50 18° SSW 22:33:33 58° WNW 22:38:10 10° N
Cosmos 1346 Rocket 4.2 22:30:49 10° NNW 22:34:10 29° W 22:36:35 15° SW
Cosmos 1703 Rocket 3.7 22:32:44 27° SSE 22:35:02 61° E 22:39:27 10° NNE
Cosmos 1833 4.1 22:30:08 12° SSW 22:35:19 85° ESE 22:40:59 10° NNE
DNEPR-1 R/B 4.4 22:29:24 10° NW 22:36:18 84° SW 22:39:56 23° SSE
Cosmos 1862 Rocket 4.4 22:32:47 13° SSW 22:36:32 46° WNW 22:40:50 10° N
Meteor 1-4 Rocket 2.8 22:41:49 25° SW 22:43:12 47° WNW 22:46:08 10° N
Cosmos 839 Rocket 4.2 22:36:55 10° NW 22:43:51 66° WSW 22:47:42 24° SSE
Cosmos 1932 4.4 22:38:31 13° SSW 22:44:07 67° SE 22:50:21 10° NE
Cosmos 2322 3.8 22:40:06 10° NNW 22:45:49 73° ENE 22:49:29 23° SE
Cosmos 2237 Rocket 3.7 22:41:44 10° NNW 22:46:48 31° NE 22:51:48 10° ESE
BlueWalker 3 3.9 22:50:03 15° ESE 22:50:03 15° ESE 22:51:09 10° E
ATLAS 2AS CENTAUR R/B 3.1 22:44:58 10° NW 22:51:28 48° WSW 22:55:16 24° S
SL-27 R/B 3.9 22:50:57 12° WSW 22:53:01 25° WNW 22:55:25 10° N
ARIANE 5 R/B 3.2 22:54:58 25° SSW 22:57:09 46° W 23:01:20 10° NNW
PSLV R/B 4.1 22:56:40 10° N 23:00:40 68° WNW 23:02:51 25° SSW
Okean 2 4.1 23:00:22 20° SW 23:02:47 46° WNW 23:06:41 10° N
Cosmos 2322 Rocket 3.8 23:01:44 10° NW 23:06:01 23° WSW 23:09:15 14° SW
Cosmos 1570 Rocket 4.0 23:01:08 10° NNW 23:06:30 80° WSW 23:09:22 28° SSE
PSLV R/B 4.5 23:03:44 10° NNE 23:07:36 33° E 23:08:58 26° SE
Cosmos 1703 4.2 23:06:48 27° ESE 23:07:46 32° E 23:11:05 10° NNE
SJ 16-02 2.2 23:05:36 13° SW 23:09:09 44° WNW 23:13:20 10° N
Cosmos 1745 Rocket 4.0 23:05:11 24° S 23:09:12 85° E 23:15:36 10° N
Cosmos 1241 Rocket 4.4 23:04:14 11° SW 23:10:13 87° NW 23:16:31 10° NE
COSMOS 2455 3.6 23:08:59 26° SSE 23:11:30 37° ESE 23:16:58 10° NE
Cosmos 2297 Rocket 3.4 23:13:10 22° SE 23:15:16 27° ESE 23:19:58 10° NE
Nadezhda 1 Rocket 4.2 23:11:41 10° NNW 23:17:58 67° W 23:21:42 25° S
GP-B 4.1 23:15:27 10° NNW 23:19:35 40° W 23:22:05 21° SW
Cosmos 1408 1.9 23:22:14 63° S 23:22:39 83° E 23:25:39 10° N
USA 281 4.1 23:19:37 21° SSW 23:23:23 37° WSW 23:29:25 10° NW
COSMOS 2428 2.7 23:19:27 10° NNW 23:25:09 74° WSW 23:28:12 28° SSE
SL-4 R/B 2.1 23:21:52 10° WNW 23:25:55 76° NNE 23:30:12 10° E
GEOS 3 Rocket 4.2 23:24:57 10° NE 23:29:44 37° ESE 23:31:28 29° SSE
ATLAS CENTAUR R/B 3.1 23:28:56 10° W 23:32:00 27° NW 23:35:11 10° NNE
Cosmos 1782 Rocket 4.1 23:28:19 10° NNW 23:32:28 46° W 23:34:15 29° SSW
Cosmos 1953 4.3 23:31:35 10° NW 23:34:17 18° W 23:35:58 14° WSW
Cosmos 2219 Rocket 3.3 23:29:57 10° NW 23:34:55 32° WSW 23:37:28 22° SSW
Cosmos 1455 4.1 23:33:47 10° NW 23:36:08 17° W 23:37:24 14° WSW
Cosmos 1242 Rocket 3.8 23:35:32 20° W 23:36:24 23° WNW 23:38:42 10° NNW
H-2A R/B 3.7 23:35:29 23° SW 23:37:12 32° W 23:41:03 10° NNW
Cosmos 2208 Rocket 4.2 23:32:05 10° NNW 23:37:12 59° WSW 23:39:34 31° S
Cosmos 1892 4.0 23:38:13 22° ESE 23:39:04 24° E 23:41:57 10° NE
Cosmos 158 Rocket 4.2 23:34:26 10° NNW 23:39:42 60° WSW 23:42:07 31° S
Cosmos 371 Rocket 3.4 23:38:59 33° S 23:40:59 59° ESE 23:45:44 10° NNE
BREEZE-M DEB (TANK) 4.0 23:38:57 10° W 23:42:33 90° SSE 23:54:49 10° E
NOSS 8 (E) 4.3 23:45:43 43° SSW 23:46:44 70° SE 23:49:52 10° NE
Cosmos 773 Rocket 3.9 23:41:56 10° NNW 23:47:07 89° ENE 23:49:51 29° SSE
Cosmos 2151 Rocket 3.9 23:43:38 10° N 23:48:01 57° ENE 23:50:03 29° SE
USA 234 4.4 23:42:39 10° ENE 23:48:50 47° N 23:55:01 10° WNW
ALOS 2 3.4 23:49:16 28° SW 23:50:56 39° W 23:55:05 10° NNW
GENESIS II 4.1 23:49:40 31° SW 23:51:18 73° NW 23:54:57 10° NE
Cosmos 2263 Rocket 4.4 23:51:44 10° ESE 23:53:13 11° E 23:54:42 10° E
Cosmos 1503 Rocket 4.2 23:51:55 30° S 23:54:26 60° ESE 23:59:40 10° NNE
Okean 2 Rocket 3.3 23:50:55 10° N 23:55:21 63° ENE 23:57:29 29° SSE
Cosmos 2360 Rocket 4.4 23:55:37 10° WNW 23:57:10 11° W 23:58:42 10° WSW
